Regional Weather Roundup
Issued by NWS Jackson, KY

Home | Current Version | Previous Version | Graphics & Text | Print | Product List | Glossary On
Versions: 1 2 3 4 5 6 7 8 9 10 11 12 13 14 15 16 17 18 19 20 21 22 23 24 25 26 27 28 29 30 31 32 33 34 35 36 37 38 39 40 41 42 43 44 45 46 47 48 49 50
000
ASUS43 KJKL 192110
RWRJKL

EAST KENTUCKY HOURLY WEATHER ROUNDUP
NATIONAL WEATHER SERVICE JACKSON KY
500 PM EDT FRI SEP 19 2014

NOTE: "FAIR" INDICATES FEW OR NO CLOUDS BELOW 12,000 FEET WITH
NO SIGNIFICANT WEATHER AND/OR OBSTRUCTIONS TO VISIBILITY.

* THESE REPORTS ARE NOT UNDER NWS QUALITY CONTROL AND MAY NOT
  REPORT WEATHER SUCH AS PRECIPITATION AND FOG.

KYZ079-080-083-085-087-088-110-112-115-119-120-192200
...EASTERN KENTUCKY...

CITY           SKY/WX    TMP DP  RH WIND       PRES   REMARKS
JACKSON        MOSUNNY   77  62  59 CALM      30.10F
LONDON         MOSUNNY   79  58  48 S6        30.09S
SOMERSET*      SUNNY     79  54  41 SW3       30.08F
MONTICELLO*    MOSUNNY   82  58  43 SE8       30.08F
WILLIAMSBURG*    N/A    N/A N/A N/A CALM        N/A
MIDDLESBORO*   SUNNY     80  59  47 SW3       30.09S
HARLAN APT*    CLEAR     81  54  39 MISG      30.10S
BLACK MTN*       N/A     72  57  60 SW1         N/A
PIKEVILLE APT* PTSUNNY   77  64  65 NE6       30.10F
BIG SANDY*     CLEAR     77  64  63 CALM      30.10S
MOREHEAD APT*  CLEAR     75  55  50 CALM      30.12F
$$

KYZ035-036-041-042-044-050-067-078-099-192200
...CENTRAL KENTUCKY...

CITY           SKY/WX    TMP DP  RH WIND       PRES   REMARKS
MT STERLING*   SUNNY     75  55  50 SE5       30.10F
FLEMING/MASON* SUNNY     75  54  46 E5        30.10F
DANVILLE*      MOSUNNY   77  57  50 E3        30.09S
RICHMOND*      MOSUNNY   77  57  50 E5        30.08S
LEXINGTON      SUNNY     79  55  43 E3        30.09F
FRANKFORT      SUNNY     77  53  43 CALM      30.08F
$$

KYZ091>093-OHZ055-061-077-WVZ005-015-034-035-042-192200
...SOUTHERN OHIO/WEST VIRGINIA...

CITY           SKY/WX    TMP DP  RH WIND       PRES   REMARKS
COVINGTON      MOSUNNY   76  47  35 SE7       30.09F
COLUMBUS       PTSUNNY   77  45  32 VRB5      30.12F
DAYTON         MOSUNNY   74  45  35 SE10      30.11F
WILMINGTON     SUNNY     76  41  28 CALM      30.11F
HUNTINGTON     SUNNY     76  60  57 CALM      30.09F
CHARLESTON     MOSUNNY   77  62  59 CALM      30.10S
PINEVILLE*     CLOUDY    75  65  70 MISG      30.18F
BECKLEY        PTSUNNY   67  58  72 SE14      30.19F
BLUEFIELD      PTSUNNY   68  57  68 SE10G18   30.22S
$$

VAZ002-007-008-TNZ017-027-036-066-071-192200
...SOUTHWEST VIRGINIA/EAST TENNESSEE...

CITY           SKY/WX    TMP DP  RH WIND       PRES   REMARKS
WISE*          PTSUNNY   77  55  47 S6        30.16F
JONESVILLE*    PTCLDY    81  57  44 SE3       30.11S
ABINGDON*      MOSUNNY   77  59  54 S9        30.16S
BRISTOL        MOSUNNY   80  58  46 E13       30.11S
KNOXVILLE      MOSUNNY   83  59  44 NE5       30.04F
OAK RIDGE      PTSUNNY   85  60  42 CALM      30.07F
CROSSVILLE     MOSUNNY   77  60  55 S3        30.10F
NASHVILLE      MOSUNNY   84  61  45 S5        30.02F
$$

...KEY TO REMARKS...
VSB - VISIBILITY IN MILES
WCI - WIND CHILL INDEX
HX  - HEAT INDEX

$$



USA.gov is the U.S. government's official web portal to all federal, state and local government web resources and services.